Location: Clinton NY
(43.0598°N, 75.3602°W)
Time: 02:11:03
(UTC-04:00)

ISS - All Passes

Search period start: 22 September 2014 00:00
Search period end: 02 October 2014 00:00
Orbit: 413 x 416 km, 51.6° (Epoch: 21 September)

Date Brightness Start Highest point End Pass type
(mag) Time Alt. Az. Time Alt. Az. Time Alt. Az.
22 Sep - 01:37:59 10° SSW 01:40:47 25° SE 01:43:36 10° ENE night (unlit)
22 Sep - 03:14:08 10° WSW 03:17:21 46° NNW 03:20:35 10° NE visible
22 Sep - 04:52:09 10° NW 04:54:39 19° N 04:57:09 10° NE visible
22 Sep - 06:29:28 10° NW 06:32:11 23° NNE 06:34:54 10° ENE daylight
22 Sep - 08:05:57 10° NW 08:09:17 80° NNE 08:12:36 10° ESE daylight
22 Sep - 09:43:52 10° W 09:45:34 14° SW 09:47:17 10° SSW daylight
23 Sep - 00:50:03 10° S 00:52:03 15° SE 00:54:03 10° E night (unlit)
23 Sep - 02:25:04 10° WSW 02:28:23 72° NNW 02:31:43 10° NE night (unlit)
23 Sep - 04:02:51 10° WNW 04:05:31 22° NNW 04:08:12 10° NE visible
23 Sep - 05:40:31 10° NW 05:43:03 20° N 05:45:35 10° ENE visible
23 Sep - 07:17:04 10° NW 07:20:19 50° NNE 07:23:34 10° ESE daylight
23 Sep - 08:54:09 10° W 08:56:50 23° SW 08:59:31 10° S daylight
24 Sep - 01:36:08 10° SW 01:39:26 68° SE 01:42:45 10° ENE night (unlit)
24 Sep - 03:13:30 10° WNW 03:16:23 26° NNW 03:19:16 10° NE visible
24 Sep - 04:51:26 10° NW 04:53:52 18° N 04:56:18 10° NE visible
24 Sep - 06:28:10 10° NW 06:31:16 34° NNE 06:34:21 10° E daylight
24 Sep - 08:04:52 10° WNW 08:08:00 39° SW 08:11:07 10° SSE daylight
25 Sep - 00:47:24 10° SSW 00:50:31 39° SE 00:53:39 10° ENE night (unlit)
25 Sep - 02:24:09 10° W 02:27:15 35° NNW 02:30:21 10° NE night (unlit)
25 Sep - 04:02:13 10° NW 04:04:39 18° N 04:07:04 10° NE visible
25 Sep - 05:39:15 10° NW 05:42:08 26° NNE 05:45:01 10° ENE visible
25 Sep - 07:15:45 10° WNW 07:19:04 69° SW 07:22:22 10° SE daylight
25 Sep - 23:58:57 10° S 00:01:37 23° SE 00:04:18 10° E night (unlit)
26 Sep - 01:34:53 10° WSW 01:38:08 50° NNW 01:41:24 10° NE night (unlit)
26 Sep - 03:12:51 10° WNW 03:15:23 20° N 03:17:56 10° NE visible
26 Sep - 04:50:15 10° NW 04:52:55 22° NNE 04:55:35 10° ENE visible
26 Sep - 06:26:43 10° NW 06:30:03 72° NNE 06:33:22 10° ESE visible
26 Sep - 08:04:22 10° W 08:06:23 15° SW 08:08:23 10° S daylight
26 Sep - 23:11:04 10° SSE 23:12:45 13° SE 23:14:27 10° E night (unlit)
27 Sep - 00:45:42 10° WSW 00:49:02 81° NNW 00:52:23 10° NE night (unlit)
27 Sep - 02:23:24 10° WNW 02:26:07 23° NNW 02:28:51 10° NE night (unlit)
27 Sep - 04:01:08 10° NW 04:03:38 19° N 04:06:09 10° NE visible
27 Sep - 05:37:42 10° NW 05:40:56 45° NNE 05:44:09 10° ESE visible
27 Sep - 07:14:40 10° WNW 07:17:29 26° SW 07:20:18 10° SSE daylight
27 Sep - 23:56:41 10° SW 23:59:58 60° SE 00:03:15 10° ENE night (unlit)
28 Sep - 01:33:55 10° W 01:36:51 28° NNW 01:39:47 10° NE night (unlit)
28 Sep - 03:11:54 10° NW 03:14:19 18° N 03:16:44 10° NE visible
28 Sep - 04:48:41 10° NW 04:51:44 32° NNE 04:54:46 10° E visible
28 Sep - 06:25:19 10° WNW 06:28:30 44° SW 06:31:41 10° SE visible
28 Sep - 23:07:52 10° SSW 23:10:55 34° SE 23:13:58 10° ENE night (unlit)
29 Sep - 00:44:27 10° W 00:47:35 37° NNW 00:50:44 10° NE night (unlit)
29 Sep - 02:22:30 10° NW 02:24:57 19° N 02:27:23 10° NE night (unlit)
29 Sep - 03:59:36 10° NW 04:02:26 25° NNE 04:05:16 10° ENE visible
29 Sep - 05:36:05 10° WNW 05:39:25 78° SW 05:42:44 10° SE visible
29 Sep - 22:19:23 10° S 22:21:54 20° SE 22:24:25 10° E night (unlit)
29 Sep - 23:55:04 10° WSW 23:58:20 56° NNW 00:01:38 10° NE night (unlit)
30 Sep - 01:32:59 10° WNW 01:35:33 20° N 01:38:08 10° NE night (unlit)
30 Sep - 03:10:27 10° NW 03:13:05 21° N 03:15:42 10° ENE night (unlit)
30 Sep - 04:46:55 10° NW 04:50:15 64° NNE 04:53:32 10° ESE visible
30 Sep - 06:24:21 10° W 06:26:37 17° SW 06:28:53 10° S visible
30 Sep - 21:31:41 10° SSE 21:32:55 12° SE 21:34:08 10° ESE night (unlit)
30 Sep - 23:05:47 10° SW 23:09:07 90° SSE 23:12:28 10° ENE night (unlit)
01 Oct - 00:43:23 10° WNW 00:46:09 24° NNW 00:48:55 10° NE night (unlit)
01 Oct - 02:21:11 10° NW 02:23:39 19° N 02:26:07 10° NE night (unlit)
01 Oct - 03:57:47 10° NW 04:00:58 41° NNE 04:04:09 10° E visible
01 Oct - 05:34:38 10° WNW 05:37:34 29° SW 05:40:30 10° SSE visible
01 Oct - 22:16:41 10° SW 22:19:55 52° SE 22:23:10 10° ENE night (unlit)
01 Oct - 23:53:46 10° W 23:56:45 30° NNW 23:59:44 10° NE night (unlit)
